TCX312 EGGP-EGNS

Flight info

Callsign TCX312
Flight time 0h 27m
Altitude 14000
Route WAL M146 LUSOD DCT IOM
Aircraft A333/H-SDE3GHIJ2J3J5M1RVWXY/LB2D1

Departure

Time 2026-04-26 20:03
Airport Liverpool John Lennon Airport (EGGP)

Arrival

Time 2026-04-26 20:30
Airport Isle of Man Airport (EGNS)
Time Latitude Longitude Altitude Speed Heading
2026-04-26 19:27 53.33636 -2.85844 100 ft 0 kts 355°
2026-04-26 19:54 53.33629 -2.85843 99 ft 2 kts 355°
2026-04-26 19:54 53.33613 -2.85841 99 ft 2 kts 355°
2026-04-26 19:54 53.33596 -2.85840 98 ft 2 kts 32°
2026-04-26 19:54 53.33593 -2.85837 97 ft 2 kts 63°
2026-04-26 19:55 53.33594 -2.85824 98 ft 0 kts 82°
2026-04-26 19:56 53.33595 -2.85808 100 ft 3 kts 82°
2026-04-26 19:56 53.33599 -2.85748 101 ft 7 kts 85°
2026-04-26 19:56 53.33604 -2.85652 99 ft 10 kts 84°
2026-04-26 19:57 53.33596 -2.85545 101 ft 10 kts 123°
2026-04-26 19:57 53.33544 -2.85507 98 ft 9 kts 162°
2026-04-26 19:57 53.33516 -2.85425 99 ft 9 kts 101°
2026-04-26 19:57 53.33515 -2.85303 98 ft 12 kts 86°
2026-04-26 19:58 53.33522 -2.85151 101 ft 14 kts 85°
2026-04-26 19:58 53.33530 -2.84976 98 ft 16 kts 85°
2026-04-26 19:58 53.33538 -2.84776 101 ft 18 kts 86°
2026-04-26 19:58 53.33548 -2.84560 98 ft 19 kts 86°
2026-04-26 19:59 53.33559 -2.84334 101 ft 16 kts 85°
2026-04-26 19:59 53.33567 -2.84170 100 ft 15 kts 83°
2026-04-26 19:59 53.33573 -2.83989 101 ft 14 kts 85°
2026-04-26 19:59 53.33573 -2.83850 101 ft 9 kts 82°
2026-04-26 20:00 53.33585 -2.83742 100 ft 11 kts 82°
2026-04-26 20:00 53.33593 -2.83607 101 ft 13 kts 84°
2026-04-26 20:00 53.33599 -2.83448 101 ft 13 kts 91°
2026-04-26 20:00 53.33578 -2.83352 102 ft 7 kts 124°
2026-04-26 20:01 53.33549 -2.83317 100 ft 0 kts 158°
2026-04-26 20:01 53.33548 -2.83317 100 ft 0 kts 158°
2026-04-26 20:01 53.33535 -2.83309 100 ft 4 kts 160°
2026-04-26 20:01 53.33498 -2.83296 98 ft 6 kts 175°
2026-04-26 20:02 53.33453 -2.83320 102 ft 8 kts 220°
2026-04-26 20:02 53.33435 -2.83393 101 ft 0 kts 263°
2026-04-26 20:02 53.33434 -2.83413 100 ft 8 kts 265°
2026-04-26 20:03 53.33397 -2.84233 98 ft 104 kts 265°
2026-04-26 20:03 53.33323 -2.85845 176 ft 169 kts 265°
2026-04-26 20:03 53.33195 -2.87953 881 ft 188 kts 264°
2026-04-26 20:03 53.33068 -2.90163 1905 ft 192 kts 265°
2026-04-26 20:04 53.33007 -2.92425 2852 ft 202 kts 273°
2026-04-26 20:04 53.33357 -2.94928 3046 ft 244 kts 291°
2026-04-26 20:04 53.34110 -2.97611 3050 ft 260 kts 297°
2026-04-26 20:04 53.34977 -3.00322 3414 ft 266 kts 298°
2026-04-26 20:05 53.35856 -3.03032 4273 ft 264 kts 298°
2026-04-26 20:05 53.36731 -3.05744 5085 ft 265 kts 298°
2026-04-26 20:05 53.37607 -3.08469 5566 ft 267 kts 298°
2026-04-26 20:05 53.38486 -3.11217 5716 ft 268 kts 298°
2026-04-26 20:06 53.39409 -3.13942 5728 ft 269 kts 302°
2026-04-26 20:06 53.40479 -3.16528 5737 ft 270 kts 307°
2026-04-26 20:06 53.41635 -3.19007 5925 ft 271 kts 308°
2026-04-26 20:06 53.42812 -3.21421 5996 ft 271 kts 309°
2026-04-26 20:07 53.44012 -3.23858 6001 ft 271 kts 309°
2026-04-26 20:07 53.45205 -3.26305 6001 ft 271 kts 309°
2026-04-26 20:07 53.46389 -3.28768 6000 ft 271 kts 308°
2026-04-26 20:07 53.47536 -3.31185 6000 ft 271 kts 308°
2026-04-26 20:08 53.48706 -3.33673 6000 ft 271 kts 308°
2026-04-26 20:08 53.49871 -3.36163 5999 ft 271 kts 308°
2026-04-26 20:08 53.51033 -3.38656 6001 ft 271 kts 308°
2026-04-26 20:08 53.52195 -3.41153 6001 ft 271 kts 308°
2026-04-26 20:09 53.53356 -3.43648 6000 ft 271 kts 308°
2026-04-26 20:09 53.54517 -3.46144 6000 ft 271 kts 308°
2026-04-26 20:09 53.55678 -3.48642 5999 ft 271 kts 308°
2026-04-26 20:09 53.56839 -3.51140 5999 ft 271 kts 308°
2026-04-26 20:10 53.58000 -3.53641 6000 ft 271 kts 308°
2026-04-26 20:10 53.59161 -3.56145 6001 ft 271 kts 308°
2026-04-26 20:10 53.60323 -3.58653 6000 ft 271 kts 308°
2026-04-26 20:10 53.61481 -3.61154 6000 ft 271 kts 308°
2026-04-26 20:11 53.62640 -3.63661 6000 ft 271 kts 308°
2026-04-26 20:11 53.63797 -3.66166 6000 ft 271 kts 307°
2026-04-26 20:11 53.64943 -3.68649 5999 ft 271 kts 307°
2026-04-26 20:12 53.67257 -3.73673 5999 ft 271 kts 307°
2026-04-26 20:12 53.68412 -3.76183 6000 ft 271 kts 307°
2026-04-26 20:12 53.69568 -3.78699 6000 ft 271 kts 307°
2026-04-26 20:12 53.70722 -3.81212 5999 ft 271 kts 307°
2026-04-26 20:13 53.71878 -3.83733 6000 ft 271 kts 307°
2026-04-26 20:13 53.73031 -3.86249 5999 ft 271 kts 307°
2026-04-26 20:13 53.74187 -3.88774 5999 ft 271 kts 307°
2026-04-26 20:13 53.75337 -3.91290 5999 ft 271 kts 307°
2026-04-26 20:14 53.76492 -3.93819 5999 ft 271 kts 307°
2026-04-26 20:14 53.77642 -3.96339 6000 ft 271 kts 307°
2026-04-26 20:14 53.78794 -3.98865 6000 ft 271 kts 307°
2026-04-26 20:14 53.79946 -4.01394 5999 ft 271 kts 307°
2026-04-26 20:15 53.81096 -4.03923 5999 ft 271 kts 307°
2026-04-26 20:15 53.82246 -4.06452 5999 ft 271 kts 307°
2026-04-26 20:15 53.83393 -4.08979 6000 ft 271 kts 307°
2026-04-26 20:15 53.84542 -4.11512 5999 ft 271 kts 307°
2026-04-26 20:16 53.85689 -4.14045 6000 ft 271 kts 307°
2026-04-26 20:16 53.86836 -4.16578 6000 ft 271 kts 307°
2026-04-26 20:16 53.87984 -4.19116 5999 ft 271 kts 307°
2026-04-26 20:16 53.89128 -4.21648 5999 ft 271 kts 307°
2026-04-26 20:17 53.90275 -4.24190 5999 ft 271 kts 307°
2026-04-26 20:17 53.91420 -4.26729 6001 ft 271 kts 307°
2026-04-26 20:17 53.92564 -4.29270 6002 ft 271 kts 307°
2026-04-26 20:17 53.93320 -4.30953 5999 ft 271 kts 306°
2026-04-26 20:18 53.94631 -4.34559 6000 ft 271 kts 298°
2026-04-26 20:18 53.95522 -4.37422 5999 ft 271 kts 296°
2026-04-26 20:18 53.96358 -4.40291 5999 ft 271 kts 296°
2026-04-26 20:18 53.97166 -4.43139 5791 ft 273 kts 295°
2026-04-26 20:19 53.97995 -4.46072 5522 ft 268 kts 295°
2026-04-26 20:19 53.98781 -4.48841 5384 ft 259 kts 295°
2026-04-26 20:19 53.99553 -4.51544 5267 ft 250 kts 296°
2026-04-26 20:19 54.00303 -4.54151 5145 ft 241 kts 296°
2026-04-26 20:20 54.01028 -4.56665 5007 ft 234 kts 296°
2026-04-26 20:20 54.01741 -4.59130 4790 ft 231 kts 296°
2026-04-26 20:20 54.02448 -4.61573 4549 ft 229 kts 296°
2026-04-26 20:20 54.03149 -4.64002 4295 ft 228 kts 296°
2026-04-26 20:21 54.03831 -4.66362 4195 ft 214 kts 296°
2026-04-26 20:21 54.04459 -4.68541 4045 ft 196 kts 296°
2026-04-26 20:21 54.05034 -4.70538 3873 ft 181 kts 296°
2026-04-26 20:21 54.05577 -4.72423 3611 ft 173 kts 296°
2026-04-26 20:22 54.06097 -4.74236 3358 ft 167 kts 296°
2026-04-26 20:22 54.06492 -4.76036 3092 ft 159 kts 277°
2026-04-26 20:22 54.06531 -4.77885 3003 ft 155 kts 268°
2026-04-26 20:22 54.06481 -4.79727 3004 ft 156 kts 266°
2026-04-26 20:23 54.06422 -4.81553 3000 ft 157 kts 271°
2026-04-26 20:23 54.06704 -4.83319 2991 ft 157 kts 304°
2026-04-26 20:23 54.07588 -4.84327 2994 ft 157 kts 349°
2026-04-26 20:23 54.08635 -4.83967 2998 ft 158 kts 34°
2026-04-26 20:24 54.09233 -4.82447 2999 ft 159 kts 79°
2026-04-26 20:24 54.09040 -4.80649 3000 ft 158 kts 124°
2026-04-26 20:24 54.08246 -4.79365 3011 ft 158 kts 145°
2026-04-26 20:24 54.07417 -4.78192 3003 ft 151 kts 129°
2026-04-26 20:25 54.07036 -4.76580 2997 ft 147 kts 97°
2026-04-26 20:25 54.07019 -4.75995 3001 ft 147 kts 88°
2026-04-26 20:25 54.07313 -4.73143 3003 ft 147 kts 82°
2026-04-26 20:25 54.07417 -4.71394 2789 ft 153 kts 85°
2026-04-26 20:26 54.07430 -4.69549 2396 ft 155 kts 97°
2026-04-26 20:26 54.07162 -4.67813 2115 ft 149 kts 113°
2026-04-26 20:26 54.06711 -4.66248 1814 ft 146 kts 118°
2026-04-26 20:26 54.06243 -4.64729 1498 ft 144 kts 116°
2026-04-26 20:27 54.05887 -4.63141 1162 ft 144 kts 98°
2026-04-26 20:27 54.05850 -4.61482 1010 ft 141 kts 88°
2026-04-26 20:27 54.05975 -4.59825 1008 ft 142 kts 80°
2026-04-26 20:27 54.06155 -4.58160 1003 ft 143 kts 79°
2026-04-26 20:28 54.06341 -4.56495 1002 ft 143 kts 79°
2026-04-26 20:28 54.06660 -4.54909 990 ft 143 kts 50°
2026-04-26 20:28 54.07507 -4.54122 997 ft 140 kts 10°
2026-04-26 20:28 54.08478 -4.54000 1004 ft 140 kts 356°
2026-04-26 20:29 54.09358 -4.54618 993 ft 140 kts 314°
2026-04-26 20:29 54.09655 -4.56118 995 ft 138 kts 261°
2026-04-26 20:29 54.09226 -4.57605 796 ft 145 kts 242°
2026-04-26 20:29 54.08776 -4.59167 390 ft 148 kts 252°
2026-04-26 20:30 54.08525 -4.60827 127 ft 140 kts 257°
2026-04-26 20:30 54.08335 -4.62334 37 ft 97 kts 258°
2026-04-26 20:30 54.08294 -4.62785 41 ft 34 kts 278°
2026-04-26 20:30 54.08331 -4.62938 41 ft 8 kts 296°
2026-04-26 20:31 54.08333 -4.62944 41 ft 0 kts 296°
2026-04-26 20:32 54.08334 -4.62947 41 ft 1 kts 296°
2026-04-26 20:32 54.08339 -4.62965 41 ft 2 kts 296°
2026-04-26 20:32 54.08349 -4.63000 41 ft 5 kts 296°
2026-04-26 20:32 54.08369 -4.63067 42 ft 8 kts 297°
2026-04-26 20:33 54.08398 -4.63164 42 ft 10 kts 295°
2026-04-26 20:33 54.08431 -4.63283 43 ft 10 kts 297°
2026-04-26 20:33 54.08474 -4.63334 43 ft 6 kts 356°
2026-04-26 20:33 54.08519 -4.63340 43 ft 8 kts 343°
2026-04-26 20:34 54.08551 -4.63383 42 ft 4 kts 298°
2026-04-26 20:34 54.08548 -4.63426 44 ft 2 kts 240°
2026-04-26 20:34 54.08541 -4.63438 44 ft 0 kts 228°